Back to catalog

SL-8 R/B

AlivePO
NORAD 10142·ROCKET BODY·🇷🇺 Russia

Launched Jul 13, 1977 from Plesetsk Cosmodrome

Loading…

Next Passes (next 24 hours)

TLE

FreshSource: Space-Track

Epoch: Sep 14, 2026, 07:10 UTC

1 10142U 77064B   26257.29906405  .00000097  00000-0  79829-4 0  9994
2 10142  82.9671  30.4022 0040769 318.4490  60.9538 13.78923893472994

Track SL-8 R/B in real time with AllMySat

Download on the App Store